Temperature
13 13 13 12 13 13 13 13 13 13 13 14 14 14 14 14 14 14 14 14 14 14 14 14 14 14 15 15 15 15 15 15 15 15 15 15 15 15 15 15 15 15 15
14 13 13 12 12 13 13 13 13 13 13 13 13 13 13 13 13 14 14 14 14 14 14 14 14 14 14 14 14 14 14 14 14 14 14 14 14 14 14 14 15 14 15
13 13 13 12 12 13 13 13 13 13 13 13 13 13 13 13 13 13 13 13 13 13 13 13 13 13 14 14 14 14 14 14 14 14 14 14 14 14 14 14 14 14 14
13 13 12 12 12 12 12 12 13 13 13 13 13 13 13 13 13 13 13 13 13 13 13 13 13 13 13 14 14 14 14 14 14 14 14 14 14 14 14 14 14 14 14
13 12 12 12 12 12 12 12 12 12 12 12 12 13 13 12 12 12 12 13 13 13 13 13 13 13 13 13 13 14 14 14 14 14 14 14 14 14 14 14 14 14 14
12 12 12 12 12 12 12 12 12 12 12 12 12 12 12 12 12 12 12 12 12 12 12 13 13 13 13 13 13 13 13 13 13 13 14 14 13 13 14 14 14 13 13
12 12 12 12 12 12 12 12 12 12 12 12 12 12 12 12 12 12 12 12 12 12 12 12 12 12 12 12 12 13 13 13 13 13 13 13 13 13 13 13 13 13 13
12 12 11 11 11 12 11 11 11 11 11 11 11 11 11 11 12 12 12 12 12 11 11 11 12 12 12 12 12 12 12 12 12 13 12 12 12 12 12 13 13 13 13
11 11 11 11 11 11 11 11 11 11 11 11 11 11 11 11 11 11 11 11 11 11 11 11 11 11 11 11 11 12 12 12 12 12 12 12 12 12 12 12 12 12 12
11 11 11 11 11 11 11 11 11 11 11 11 11 11 11 11 11 11 11 11 11 11 11 11 11 11 11 11 11 11 11 12 12 12 11 11 11 12 12 12 12 12 12
10 10 10 10 10 10 11 11 10 10 10 10 10 10 10 10 11 11 10 10 10 10 10 10 10 10 10 11 11 11 11 11 11 11 11 11 11 11 11 11 11 11 11
10 10 10 10 10 10 10 10 10 10 10 10 10 10 10 10 10 10 10 10 10 10 10 10 10 10 10 10 10 10 10 11 11 11 10 10 10 11 11 11 11 11 11
10 10 10 10 10 10 10 10 10 10 10 9 10 10 10 10 10 10 10 10 10 10 10 10 10 10 10 10 10 10 10 10 10 10 10 10 10 10 10 10 10 10 10
9 9 9 9 9 9 9 9 9 9 9 9 9 9 9 9 9 9 9 9 9 9 9 9 9 9 9 9 9 9 10 10 10 10 10 9 9 9 9 9 10 9 10
9 9 9 9 9 9 9 9 9 9 9 9 9 9 9 9 9 9 9 9 9 9 9 9 9 9 9 9 9 9 9 9 9 9 9 9 9 9 9 9 9 9 9
9 9 9 8 8 8 8 8 8 8 8 8 8 8 8 8 8 8 8 8 8 8 8 8 8 8 8 8 8 8 8 9 9 9 8 8 8 8 8 8 8 8 8
9 8 8 8 8 8 8 8 8 8 8 8 8 8 7 7 7 7 7 7 7 7 7 7 8 8 8 8 8 8 8 8 8 8 8 8 8 8 8 8 8 8 8
8 8 8 8 8 8 7 7 7 7 7 7 7 7 7 7 7 7 7 7 6 7 7 7 7 7 7 7 7 7 7 7 7 7 7 7 7 7 8 8 7 7 7
8 8 8 7 7 7 7 7 7 7 7 7 7 6 6 6 6 6 6 6 6 6 6 6 6 6 6 7 7 6 6 7 7 7 7 7 7 7 7 7 7 7 7
7 7 7 7 7 7 7 6 6 6 6 6 6 6 6 6 6 6 6 5 5 5 5 5 5 5 5 6 6 6 6 6 6 6 6 6 6 6 6 6 6 7 6
7 7 7 7 6 6 6 6 6 6 6 6 6 6 5 5 5 5 5 5 5 5 5 5 5 5 5 5 5 5 5 5 5 5 5 5 5 5 5 6 6 6 6
7 6 6 6 6 6 6 6 6 6 5 5 5 5 5 5 5 5 5 4 4 4 4 4 5 4 4 4 4 4 4 4 4 4 4 5 5 5 5 5 5 5 5
6 6 6 6 6 6 5 5 5 5 5 5 5 5 4 4 4 4 4 4 4 4 4 4 4 4 4 4 4 4 4 3 3 3 4 4 4 4 4 4 4 4 5
6 6 5 5 5 5 5 5 5 5 5 4 4 4 4 4 4 4 4 4 3 3 3 3 3 3 4 4 3 3 4 4 3 3 3 3 3 3 4 4 4 4 4
5 5 5 5 4 4 4 4 4 4 4 4 4 4 4 4 3 3 3 3 3 3 3 3 3 3 3 3 3 3 3 3 3 3 2 2 3 3 3 3 3 3 3
5 4 4 4 4 4 4 4 4 4 4 4 3 3 3 3 3 3 3 3 3 3 2 2 2 2 2 2 2 2 2 2 3 2 2 2 2 2 2 2 3 3 3
Wind_Speed
3 3 7 9 10 10 11 11 11 12 12 12 13 13 13 13 13 13 13 13 13 13 13 14 15 15 16 16 17 17 17 17 17 17 17 17 17 16 16 16 15 15 17
5 6 8 10 11 11 11 11 11 12 12 12 13 13 13 13 13 13 13 13 13 13 13 14 14 15 15 16 16 16 17 17 17 17 16 16 16 16 16 16 16 15 17
6 7 9 12 12 11 11 11 11 11 11 12 12 13 13 13 13 13 13 13 13 13 13 13 14 14 15 15 15 16 16 16 17 16 15 14 15 16 16 16 16 16 17
7 8 9 13 13 12 12 12 12 11 11 12 12 13 13 13 13 13 13 13 13 13 13 13 14 14 15 15 15 15 16 16 16 15 14 13 13 15 16 16 16 17 17
7 8 10 13 13 13 12 12 12 12 12 12 12 13 13 14 14 13 13 13 13 13 13 13 14 14 14 14 15 15 16 16 16 15 14 13 13 14 15 15 16 16 16
7 8 11 14 13 13 12 12 12 12 12 13 13 13 13 13 13 13 13 12 12 12 12 13 13 14 14 14 15 15 15 15 15 15 14 13 12 13 14 15 15 15 16
7 8 11 14 14 13 13 12 12 12 13 13 13 13 12 12 12 12 12 12 12 12 12 12 13 13 13 14 15 15 15 15 15 14 13 12 12 13 13 14 14 14 15
8 8 10 13 13 13 12 12 12 12 12 12 12 12 12 12 12 11 11 11 11 12 12 12 12 13 13 14 15 15 15 14 14 13 12 12 12 12 13 13 13 13 14
8 8 8 10 11 12 12 12 12 12 12 12 12 12 12 11 11 11 11 11 11 11 12 12 12 13 14 14 15 16 16 15 14 12 11 11 12 12 12 12 12 13 13
7 7 7 9 10 10 10 12 12 11 11 11 12 12 12 11 11 11 11 11 11 11 11 12 13 13 14 14 15 15 15 15 14 13 11 11 12 11 11 11 11 12 12
6 5 7 8 8 9 9 10 11 11 11 11 11 12 11 11 11 10 11 11 11 11 11 12 13 14 13 14 14 14 14 13 13 12 11 11 12 12 12 11 11 11 11
9 6 5 7 7 8 8 9 9 9 10 10 10 11 11 10 10 10 11 11 12 12 12 12 13 12 12 11 12 13 13 13 12 11 11 12 12 12 12 11 11 11 10
9 7 6 7 8 8 7 8 8 8 9 9 10 10 10 10 10 10 10 10 11 12 12 11 11 11 11 10 11 11 12 12 11 11 10 11 11 11 11 11 10 9 10
9 8 7 6 7 7 8 7 7 7 7 7 8 9 9 7 7 8 8 9 9 9 10 10 9 10 11 11 11 11 12 11 11 11 11 11 11 11 10 10 10 10 9
9 9 8 7 7 7 7 6 6 6 6 7 7 8 8 7 5 6 7 8 8 9 8 8 9 9 9 10 10 11 11 11 12 11 11 13 12 11 11 10 10 9 9
10 9 9 8 8 8 6 5 5 6 7 7 7 7 8 8 6 6 6 6 7 7 8 8 8 7 7 8 8 9 9 10 11 12 12 12 13 12 11 11 10 9 10
11 10 9 9 8 8 7 6 6 6 7 6 6 7 8 8 7 6 5 5 5 7 8 8 8 8 7 7 6 8 8 9 10 11 11 11 12 12 12 11 11 10 9
10 10 9 8 8 7 6 6 6 6 7 6 7 7 7 8 8 7 5 4 6 7 7 5 4 4 4 4 4 5 6 7 9 9 10 10 11 11 11 11 11 11 10
11 11 10 9 9 7 6 6 6 6 5 6 7 6 7 7 8 7 5 5 6 6 5 4 3 3 4 4 4 4 5 5 6 7 8 9 10 10 11 10 11 11 10
9 9 10 9 8 7 6 5 4 4 4 5 5 6 6 7 7 7 6 6 6 5 3 4 4 3 3 3 4 4 4 4 5 5 5 7 9 10 10 10 10 9 9
9 9 10 9 9 8 6 5 4 4 3 2 3 5 6 6 7 7 5 5 5 4 4 4 4 4 2 2 3 2 3 3 3 4 5 6 7 8 9 9 9 9 8
10 10 9 9 9 8 6 5 4 3 3 3 3 4 6 6 6 6 6 4 4 4 4 4 4 2 1 1 2 1 1 2 3 3 3 3 4 6 7 8 9 9 8
10 11 10 10 9 8 7 5 4 3 2 2 2 2 3 6 6 6 6 5 4 4 4 4 4 4 2 0 0 2 2 2 1 1 2 2 3 4 5 6 7 8 8
10 9 9 9 9 8 8 8 8 6 4 4 4 3 3 5 6 6 6 6 5 4 4 4 3 2 3 2 0 1 1 2 2 0 1 2 2 2 3 4 5 7 7
8 9 9 9 8 8 8 8 8 5 4 3 3 4 4 3 5 6 6 6 5 4 4 4 3 3 2 2 2 1 1 1 1 2 2 2 2 2 2 2 3 5 6
6 7 8 8 8 8 8 7 7 7 6 6 5 5 4 3 3 4 5 5 5 4 4 4 4 4 3 3 2 2 2 2 2 2 2 2 2 2 2 2 2 3 5
Wind_Direction
195 195 160 138 127 118 111 105 100 96 92 90 88 85 84 82 81 79 76 75 75 76 78 77 75 76 74 72 70 69 68 66 65 65 66 69 74 77 78 77 76 76 81
161 167 154 138 129 121 115 110 105 100 96 92 89 86 84 81 81 79 75 74 74 75 77 78 76 75 75 73 72 71 70 68 65 64 62 65 71 75 78 78 78 80 82
139 149 147 135 128 122 117 113 109 104 98 94 91 87 84 81 80 78 76 74 74 75 76 77 76 75 74 74 73 72 71 69 65 63 60 60 67 73 75 76 78 79 80
132 137 138 134 128 124 120 115 111 107 102 97 93 89 85 82 80 78 76 74 73 74 74 75 76 76 74 73 72 72 71 68 65 63 58 58 63 70 72 75 77 77 77
122 128 136 132 129 125 121 118 113 109 104 99 94 90 86 82 80 78 76 74 73 75 75 74 76 76 75 74 72 72 70 66 64 60 57 57 61 68 70 71 74 76 77
117 123 134 132 129 126 122 118 114 109 104 99 95 91 87 84 81 78 75 75 76 76 76 75 76 76 76 75 74 73 70 66 62 58 55 56 61 70 72 72 72 74 75
122 120 133 133 130 126 122 118 113 107 102 99 96 92 88 85 83 80 77 76 76 77 77 76 75 76 77 76 74 73 70 66 62 57 53 54 62 69 72 74 74 74 75
123 117 128 130 126 123 121 118 114 109 104 100 97 93 89 85 83 82 80 78 76 77 78 78 78 77 77 75 72 70 66 64 61 57 53 54 62 67 71 74 75 75 75
114 111 112 120 121 119 118 117 113 109 106 102 98 94 90 85 83 81 79 79 77 76 77 79 81 80 77 74 71 68 64 61 56 52 52 53 60 65 69 72 73 74 74
115 113 112 111 113 112 114 117 113 110 108 104 99 94 90 86 83 79 76 78 78 78 78 80 81 79 77 74 71 67 62 57 53 49 49 54 60 65 67 70 72 72 71
136 127 120 115 111 112 114 116 113 112 108 103 99 95 88 83 79 75 73 74 77 79 79 80 78 76 72 71 68 64 59 55 51 46 47 55 59 62 65 65 68 69 69
164 155 136 127 120 115 115 113 110 107 104 100 100 98 92 87 82 79 76 73 74 75 76 76 74 70 67 67 65 62 60 56 51 42 46 53 58 60 62 63 66 67 68
168 161 153 140 129 122 114 110 108 106 102 101 103 102 99 91 84 78 74 71 69 66 66 67 65 65 66 68 66 63 60 57 50 43 46 52 55 56 58 59 61 65 67
167 166 160 144 132 126 121 114 110 106 104 104 109 111 106 94 84 80 76 74 73 74 72 70 71 69 67 68 68 65 60 57 49 43 45 52 54 55 57 58 56 58 64
172 170 164 150 145 137 124 120 116 114 115 117 117 117 117 106 96 89 83 81 80 83 83 80 79 75 69 65 64 64 59 56 52 46 41 47 52 52 51 54 54 52 58
176 171 166 160 154 145 138 133 129 126 126 124 122 124 123 118 111 101 90 86 85 90 91 89 87 83 76 74 68 63 59 56 54 50 45 41 44 47 48 49 50 49 49
180 170 167 165 158 153 148 144 134 134 134 130 132 133 129 127 121 112 100 92 95 101 98 94 87 86 80 73 64 61 59 57 55 50 46 43 41 40 45 46 45 45 46
176 170 171 164 157 157 154 148 138 136 135 133 137 137 136 134 131 119 108 104 110 108 104 99 90 82 73 67 57 51 53 55 54 51 49 46 45 40 39 42 43 41 40
180 174 171 166 164 158 148 144 135 134 134 137 139 139 142 141 140 130 122 122 120 107 100 104 87 91 90 78 65 49 45 48 47 51 53 48 47 46 41 37 37 37 34
177 174 172 167 164 154 139 126 126 123 123 130 140 145 147 147 146 136 128 129 125 114 103 105 102 83 96 94 72 52 32 34 46 48 50 50 49 48 46 41 37 31 28
175 174 173 169 167 160 157 157 155 164 163 150 145 149 152 152 150 142 134 132 131 134 136 131 119 104 86 97 81 55 30 30 41 39 47 50 48 46 48 45 41 36 27
183 180 176 174 171 173 173 168 159 151 164 160 147 148 158 156 156 153 143 147 145 139 142 144 136 127 116 83 113 109 62 5 21 23 25 36 38 46 47 40 41 35 31
186 184 182 178 174 173 161 146 129 110 105 143 168 175 172 166 162 157 154 148 151 154 162 165 160 152 165 174 96 152 157 199 302 346 5 22 28 34 36 37 35 30 27
190 183 178 175 174 172 163 165 165 169 176 189 185 184 179 171 164 159 154 151 155 160 165 175 168 166 162 175 138 23 116 153 160 229 324 360 5 9 15 25 25 22 22
183 179 177 173 174 173 173 175 175 176 170 159 156 166 171 168 163 161 159 157 161 165 170 171 169 169 175 179 179 173 91 66 116 181 243 300 331 336 347 7 22 20 19
174 171 171 172 176 175 176 177 178 175 167 162 171 175 179 177 173 169 165 166 169 172 178 179 177 176 182 171 171 183 185 175 184 181 209 266 289 304 322 333 4 10 14
Height
1516 1518 1521 1523 1525 1526 1527 1528 1529 1530 1531 1532 1532 1533 1533 1534 1534 1535 1535 1536 1536 1537 1537 1537 1537 1538 1538 1538 1539 1539 1539 1540 1540 1541 1541 1542 1542 1542 1543 1543 1544 1544 1545
1514 1517 1520 1522 1524 1526 1527 1528 1529 1530 1531 1532 1533 1534 1534 1535 1535 1536 1536 1537 1537 1537 1538 1538 1538 1539 1539 1539 1540 1540 1541 1541 1542 1542 1543 1543 1544 1544 1545 1545 1546 1546 1547
1514 1517 1519 1522 1523 1525 1527 1528 1529 1530 1531 1532 1533 1534 1535 1535 1536 1536 1537 1537 1538 1538 1538 1539 1539 1540 1540 1541 1541 1542 1542 1543 1543 1544 1544 1545 1546 1546 1547 1547 1548 1548 1549
1514 1516 1519 1521 1523 1525 1526 1528 1529 1530 1531 1533 1534 1534 1535 1535 1536 1537 1537 1538 1538 1538 1539 1539 1540 1541 1541 1542 1542 1543 1543 1544 1544 1545 1546 1546 1547 1548 1548 1549 1549 1550 1550
1514 1516 1519 1521 1523 1525 1526 1528 1529 1530 1531 1533 1534 1534 1535 1536 1536 1537 1537 1538 1538 1539 1539 1540 1540 1541 1542 1543 1543 1544 1544 1545 1545 1546 1547 1548 1548 1549 1550 1550 1551 1551 1552
1514 1516 1519 1521 1523 1524 1526 1528 1529 1530 1531 1532 1533 1534 1535 1536 1536 1537 1537 1538 1539 1539 1540 1540 1541 1542 1542 1543 1544 1544 1545 1546 1547 1547 1548 1548 1549 1550 1551 1551 1552 1552 1553
1513 1516 1519 1521 1523 1524 1526 1528 1529 1530 1531 1533 1533 1534 1535 1536 1536 1537 1537 1538 1539 1539 1540 1541 1541 1542 1543 1544 1545 1545 1546 1547 1547 1548 1549 1549 1550 1551 1551 1552 1552 1553 1554
1513 1516 1518 1520 1522 1524 1526 1527 1529 1530 1531 1532 1533 1534 1535 1536 1536 1537 1537 1538 1539 1539 1540 1541 1542 1542 1543 1544 1545 1546 1547 1547 1548 1549 1549 1550 1551 1551 1552 1553 1553 1554 1554
1513 1515 1517 1520 1522 1524 1525 1527 1528 1530 1531 1532 1533 1534 1534 1535 1536 1536 1537 1538 1538 1539 1540 1541 1542 1542 1543 1544 1545 1546 1547 1548 1548 1549 1550 1550 1551 1552 1552 1553 1554 1554 1554
1513 1515 1517 1519 1521 1523 1524 1526 1527 1529 1530 1531 1532 1533 1534 1534 1535 1536 1537 1537 1538 1539 1540 1541 1541 1542 1543 1544 1545 1546 1547 1548 1548 1549 1550 1551 1552 1552 1552 1553 1554 1554 1555
1511 1513 1515 1517 1519 1522 1523 1525 1527 1528 1529 1530 1531 1532 1533 1534 1534 1535 1536 1537 1538 1539 1539 1540 1541 1542 1543 1544 1545 1546 1547 1547 1548 1549 1550 1551 1552 1552 1552 1552 1553 1554 1554
1508 1511 1513 1515 1518 1520 1522 1523 1525 1527 1528 1529 1530 1531 1532 1533 1534 1535 1536 1536 1537 1538 1539 1540 1541 1542 1543 1543 1545 1546 1546 1547 1548 1549 1550 1551 1551 1551 1552 1552 1553 1553 1554
1506 1509 1511 1513 1516 1518 1520 1522 1523 1525 1527 1528 1529 1530 1531 1532 1533 1534 1535 1535 1536 1537 1538 1539 1540 1541 1542 1543 1544 1545 1546 1546 1547 1548 1549 1550 1550 1551 1551 1552 1552 1553 1554
1504 1506 1509 1511 1514 1516 1518 1520 1522 1523 1525 1526 1528 1529 1530 1531 1532 1533 1534 1535 1536 1537 1537 1538 1539 1541 1542 1543 1543 1544 1545 1546 1546 1547 1548 1549 1549 1550 1551 1551 1552 1553 1553
1501 1504 1506 1509 1512 1514 1516 1518 1520 1522 1523 1525 1526 1528 1529 1530 1531 1532 1533 1534 1534 1535 1537 1538 1539 1540 1541 1542 1542 1543 1544 1544 1545 1546 1547 1548 1548 1549 1550 1551 1551 1552 1552
1498 1501 1504 1507 1509 1512 1514 1516 1518 1520 1522 1523 1525 1526 1527 1529 1529 1530 1531 1532 1533 1534 1535 1536 1537 1538 1539 1540 1541 1542 1543 1543 1544 1545 1545 1546 1547 1548 1548 1549 1550 1550 1551
1495 1498 1501 1504 1507 1509 1512 1514 1516 1518 1519 1521 1523 1524 1526 1527 1528 1529 1530 1531 1532 1533 1534 1535 1536 1537 1538 1539 1540 1541 1541 1542 1543 1543 1544 1545 1545 1546 1547 1547 1548 1549 1549
1492 1495 1498 1501 1504 1506 1509 1511 1513 1515 1517 1519 1521 1522 1524 1525 1526 1527 1528 1529 1530 1531 1532 1533 1534 1535 1536 1537 1538 1539 1540 1540 1541 1542 1543 1543 1544 1544 1545 1545 1546 1547 1547
1489 1492 1494 1497 1500 1503 1506 1509 1511 1513 1515 1517 1518 1520 1521 1523 1524 1525 1526 1527 1528 1530 1531 1532 1533 1534 1534 1535 1536 1537 1538 1539 1540 1540 1541 1542 1542 1543 1543 1544 1544 1545 1545
1485 1488 1491 1494 1497 1500 1503 1505 1507 1509 1512 1514 1516 1517 1519 1520 1521 1522 1524 1525 1526 1527 1529 1530 1531 1532 1533 1534 1534 1535 1536 1537 1538 1538 1539 1540 1540 1541 1541 1542 1542 1542 1543
1481 1484 1487 1490 1493 1495 1498 1500 1502 1505 1508 1510 1512 1514 1516 1517 1519 1520 1521 1522 1524 1525 1526 1528 1529 1530 1531 1532 1533 1533 1534 1535 1536 1536 1537 1538 1538 1539 1539 1540 1540 1540 1541
1476 1479 1483 1485 1488 1491 1494 1497 1499 1502 1505 1507 1509 1511 1513 1514 1516 1517 1518 1520 1521 1523 1524 1525 1527 1527 1528 1530 1531 1531 1532 1534 1533 1534 1535 1535 1536 1536 1537 1537 1537 1538 1538
1471 1474 1477 1481 1484 1487 1490 1493 1496 1499 1501 1503 1505 1507 1509 1511 1512 1514 1515 1517 1518 1520 1521 1523 1524 1525 1526 1528 1529 1531 1530 1530 1531 1532 1532 1533 1533 1534 1534 1535 1535 1535 1535
1466 1470 1473 1476 1480 1483 1486 1489 1491 1493 1495 1498 1501 1503 1506 1508 1509 1511 1512 1514 1515 1517 1518 1520 1522 1523 1524 1525 1526 1527 1529 1528 1529 1528 1530 1530 1531 1531 1532 1532 1532 1532 1533
1462 1466 1469 1472 1476 1479 1482 1485 1487 1490 1492 1495 1497 1500 1502 1504 1505 1507 1509 1510 1512 1514 1515 1517 1518 1520 1521 1523 1523 1524 1525 1526 1527 1527 1526 1527 1528 1528 1529 1529 1530 1530 1530
1459 1462 1465 1468 1471 1475 1478 1480 1483 1486 1488 1490 1493 1495 1497 1499 1501 1503 1505 1506 1508 1510 1511 1513 1515 1516 1518 1520 1521 1522 1522 1523 1524 1525 1524 1524 1524 1525 1526 1526 1527 1527 1527